Regional Weather Roundup
Issued by NWS

Home | Current Version | Previous Version | Text Only | Print | Product List | Glossary On
Versions: 1 2 3 4 5 6 7 8 9 10 11 12 13 14 15 16 17 18 19 20 21 22 23 24 25 26 27 28 29 30 31 32 33 34 35 36 37 38 39 40 41 42 43 44 45 46 47 48 49 50
000
ASUS43 KMKX 200100
RWRWI

WISCONSIN REGIONAL WEATHER ROUNDUP
NATIONAL WEATHER SERVICE MILWAUKEE/SULLIVAN WI
800 PM CDT SAT APR 19 2014

NOTE: "FAIR" INDICATES FEW OR NO CLOUDS BELOW 12,000 FEET WITH NO
SIGNIFICANT WEATHER AND/OR OBSTRUCTIONS TO VISIBILITY.

WIZ001-002-006>008-014>016-023>028-200200-
NORTHWEST WISCONSIN

CITY           SKY/WX    TMP DP  RH WIND       PRES   REMARKS
SUPERIOR ARPT  PTCLDY    34  31  90 NE5       30.04R WCI  30
ASHLAND        CLOUDY    37  37 100 VRB3      30.03R
HAYWARD        CLOUDY    50  42  74 S3        30.02S
SIREN          CLOUDY    52  41  64 CALM      30.00S
RICE LAKE      DRIZZLE   51  44  75 SE7       30.04S
LADYSMITH      DRIZZLE   52  47  81 SE9       30.07S
EAU CLAIRE     NOT AVBL
MENOMONIE      CLOUDY    57  44  61 N8        30.03R
NEW RICHMOND   LGT RAIN  55  47  73 S9        30.01S
OSCEOLA        CLOUDY    58  47  64 S14       30.01S
$$

WIZ003>005-009-010-017-018-200200-
NORTH CENTRAL WISCONSIN

CITY           SKY/WX    TMP DP  RH WIND       PRES   REMARKS
WOODRUFF       LGT RAIN  44  39  81 S6        30.10S
RHINELANDER    LGT RAIN  47  37  68 SE7       30.12F
EAGLE RIVER    LGT RAIN  47  33  59 S8        30.10F
LAND O LAKES   DRIZZLE   46  36  69 S7        30.10S
PHILLIPS       DRIZZLE   48  43  81 S8        30.06F
TOMAHAWK       LGT RAIN  45  41  85 CALM      30.12S
MEDFORD        CLOUDY    55  40  58 E5        30.09F
MERRILL        CLOUDY    55  38  52 CALM      30.12S
$$

WIZ029-030-035-036-043>047-200200-
CENTRAL WISCONSIN

CITY           SKY/WX    TMP DP  RH WIND       PRES   REMARKS
WAUSAU         CLOUDY    59  37  44 SE9       30.10R
MOSINEE        NOT AVBL
MARSHFIELD     CLOUDY    59  40  49 S9        30.09S
STEVENS POINT  CLOUDY    58  37  44 S9        30.13S
WAUPACA        MOCLDY    57  36  44 SE10      30.15F
WAUTOMA        NOT AVBL
WISC RAPIDS    CLOUDY    62  35  36 S8        30.12S
CAMP DOUGLAS   NOT AVBL
$$

WIZ011>013-019>022-031-037>040-048>050-200200-
NORTHEAST WISCONSIN

CITY           SKY/WX    TMP DP  RH WIND       PRES   REMARKS
ANTIGO         CLOUDY    48  37  65 SE10      30.15S
STURGEON BAY   MOCLDY    41  30  65 SE13G18   30.22F
GREEN BAY      MOCLDY    48  36  63 SE12      30.19F
MANITOWOC      NOT AVBL
APPLETON       MOCLDY    52  32  46 SE12      30.17F
CLINTONVILLE   MOCLDY    54  34  47 S10       30.16S
OSHKOSH        CLOUDY    53  34  48 SE9       30.17F
$$

WIZ032>034-041-042-053>061-200200-
SOUTHWEST WISCONSIN

CITY           SKY/WX    TMP DP  RH WIND       PRES   REMARKS
LA CROSSE      MOCLDY    64  39  39 S7        30.05F
SPARTA         MOCLDY    65  34  31 S10       30.10S
VIROQUA        FAIR      63  36  37 SE10      30.10S
BOSCOBEL       CLOUDY    67  35  30 VRB6      30.11S
PRAIRIE DU CHI CLOUDY    69  36  30 SE7       30.09S
PLATTEVILLE    FAIR      61  36  38 SE9       30.14S
$$

WIZ056-057-062-063-064-067-068-200200-
SOUTH CENTRAL WISCONSIN

CITY           SKY/WX    TMP DP  RH WIND       PRES   REMARKS
BARABOO/DELLS  CLOUDY    61  35  38 S9G16     30.14S
LONE ROCK      NOT AVBL
WATERTOWN      CLOUDY    56  37  49 SE9       30.19R
MADISON        CLOUDY    62  35  36 S6        30.17S
MIDDLETON      FAIR      64  32  30 S5        30.17S
MONROE         CLOUDY    61  34  37 SE8       30.15S
JANESVILLE     NOT AVBL
$$

WIZ051-052-058>065-066-070>072-200200-
SOUTHEAST WISCONSIN

CITY           SKY/WX    TMP DP  RH WIND       PRES   REMARKS
MILWAUKEE      CLOUDY    44  33  65 SE7       30.23F
WAUKESHA       CLEAR     50  36  57 SE7       30.22S
MILWAUKEE/TIMM CLEAR     48  34  57 SE7       30.22F
RACINE         CLOUDY    44  34  67 E7        30.25S
BURLINGTON     CLOUDY    52  38  58 SW9       30.21F
KENOSHA        CLOUDY    43  34  70 E6        30.23S
FOND DU LAC    CLOUDY    52  35  52 SE13      30.19S
SHEBOYGAN      MOCLDY    44  34  67 S6        30.23S
WEST BEND      CLOUDY    46  34  61 CALM      30.23R
JUNEAU         CLOUDY    55  32  42 SE10      30.19F
$$

LSZ147-162-200200-
LAKE SUPERIOR

STATION/POSITION TIME  TEMP    WIND        PRES    WAVE
                       AIR SEA DIR/SP/G            HT/PER
                 (UTC) (F)     (DEG/KT/KT) (MB)    (FT/S)
DEVILS ISLAND    0000   37        CALM     1017.9R
PORT WING        0040   35      50/  3/  5 1016.9F
SAXON HARBOR     0000          190/  4/ 13 1015.9F
$$

LMZ867-665-643>646-200200-
LAKE MICHIGAN

STATION/POSITION TIME  TEMP    WIND        PRES    WAVE
                       AIR SEA DIR/SP/G            HT/PER
                 (UTC) (F)     (DEG/KT/KT) (MB)    (FT/S)
NORTHPORT PIER   0000   37     140/ 10/ 12 1024.0F
SISTER BAY       0009   41     170/  9/ 11   N/A
KEWAUNEE LAKESHO 0000   41     170/ 10/ 11 1024.3F
SHEBOYGAN LAKESH 0000   43     180/  9/  9 1024.6F
PORT WASHINGTON  0000   40     200/  3/  4 1024.4
MILWAUKEE LAKESH 0000   38      90/  2/  3   N/A
KENOSHA   LAKESH 0000   42      20/  3/  3   N/A
$$

TC  - TEMPERATURE IN CELSIUS
VSB - VISIBILITY IN STATUTE MILES
WCI - WIND CHILL INDEX
HX  - HEAT INDEX




USA.gov is the U.S. government's official web portal to all federal, state and local government web resources and services.